#timestamp,LO_Frequency,Hit,StdDev 
1637060415.8,286046999.8,N
1637060435.7,286047004.0,N
1637060455.5,286047003.9,N
1637060475.3,286047003.7,N
1637060495.2,286047006.0,Y
1637060515.9,286047001.5,P
1637060535.7,286047004.2,P
1637060555.6,286047003.0,N
1637060575.4,286047003.1,Y
1637060595.2,286047002.0,P
1637060615.1,286047001.5,P
1637060616.0,286047001.5,N
1637060635.8,286047001.8,Y
1637060655.6,286047000.7,P
1637060675.5,286047000.8,N
1637060695.3,286046999.9,N
1637060715.1,286047002.8,Y
1637060735.9,286046999.9,P
1637060755.7,286047000.6,N
1637060775.5,286047002.2,P
1637060795.4,286047004.2,Y
1637060815.2,286047000.1,P
1637060835.0,286047002.1,P
1637060835.9,286047002.1,N
1637060855.8,286047003.8,Y
1637060875.6,286047003.9,P
1637060895.4,286047001.7,N
1637060915.3,286047004.0,P
1637060935.1,286047005.4,Y
1637060955.8,286047001.3,P
1637060975.7,286047001.6,N
1637060995.5,286047001.8,N
1637061015.3,286047003.8,Y
1637061035.2,286047001.9,P
1637061055.0,286046999.8,P
1637061055.9,286046999.8,N
1637061075.8,286046999.7,N
1637061095.6,286047002.6,N
1637061115.4,286047002.6,N
1637061135.3,286047002.4,N
1637061155.1,286047002.5,N
1637061156.0,286047002.5,N
1637061175.8,286047004.4,Y
1637061195.7,286047001.8,P
1637061215.5,286047001.7,P
1637061235.3,286047001.5,P
1637061255.2,286047004.1,Y
1637061275.9,286047001.8,P
1637061295.7,286047001.5,P
1637061315.6,286047004.0,P
1637061335.4,286047005.8,Y
1637061355.2,286047004.1,P
1637061375.1,286047001.8,N
1637061376.0,286047001.8,N
1637061395.8,286047001.6,N
1637061415.6,286047005.8,Y
1637061435.5,286046999.8,P
1637061455.3,286047002.8,N
1637061475.1,286047001.9,N
1637061495.9,286047002.0,N
1637061515.7,286047004.0,Y
1637061535.5,286046999.8,P
1637061555.4,286047002.2,N
1637061575.2,286047003.7,P
1637061595.0,286047004.0,N
1637061595.9,286047004.0,N
1637061615.8,286047001.3,N
1637061635.6,286047005.3,Y
1637061655.4,286047004.1,P
1637061675.3,286047001.8,N
1637061695.1,286047002.5,N
1637061715.8,286047001.4,N
1637061735.7,286047006.0,Y
1637061755.5,286047002.1,P
1637061775.3,286047002.1,P
1637061795.2,286047001.6,P
1637061815.0,286047003.2,Y
1637061815.9,286047003.2,P
1637061835.7,286047001.7,N
1637061855.6,286047004.1,P
1637061875.4,286047005.8,Y
1637061895.2,286047003.6,P
1637061915.1,286047005.7,P
1637061916.0,286047005.7,P
1637061935.8,286047003.3,N
1637061955.7,286047006.0,Y
1637061975.5,286047002.4,P
1637061995.3,286047002.8,P
1637062015.2,286047001.6,N
1637062035.9,286047003.9,Y
1637062055.7,286047002.3,P
1637062075.6,286047002.2,P
1637062095.4,286047002.2,P
1637062115.2,286047002.4,Y
1637062135.1,286047000.9,P
1637062136.0,286047000.9,N
1637062155.8,286047002.5,P
1637062175.6,286046999.7,N
1637062195.5,286047001.8,N
1637062215.3,286047003.9,Y
1637062235.1,286047001.8,P
1637062255.9,286047003.5,P
1637062275.7,286047005.4,P
1637062295.5,286047006.0,Y
1637062315.4,286047000.1,P
1637062335.2,286047001.0,N
1637062355.0,286046998.5,N
1637062355.9,286046998.5,N
1637062375.8,286047000.0,N
1637062395.6,286047002.7,N
1637062415.4,286046999.8,N
1637062435.3,286047000.3,N
1637062455.1,286046999.7,N
1637062456.0,286046999.7,N
1637062475.8,286047004.4,Y
1637062495.7,286047004.1,P
1637062515.5,286047001.7,N
1637062535.3,286047001.3,N
1637062555.2,286047003.9,N
1637062575.9,286047001.7,N
1637062595.7,286047003.1,N
1637062615.6,286047003.2,N
1637062635.4,286047005.8,Y
1637062655.2,286047001.5,P
1637062675.1,286047001.4,P
1637062676.0,286047001.4,P
1637062695.8,286047003.6,Y
1637062715.6,286047002.0,P
1637062735.5,286047001.7,P
1637062755.3,286047004.2,P
1637062775.1,286047004.3,Y
1637062795.9,286047001.1,P
1637062815.7,286046998.8,N
1637062835.5,286046999.5,N
1637062855.4,286046998.6,N
1637062875.2,286046998.7,N
1637062895.0,286046998.3,N
1637062895.9,286046998.3,N
1637062915.8,286046998.7,N
1637062935.6,286046998.1,N
1637062955.4,286047002.5,N
1637062975.3,286047004.1,N
1637062995.1,286047003.2,N
1637063015.8,286047002.9,N
1637063035.7,286047003.5,N
1637063055.5,286047003.7,N
1637063075.3,286047004.2,N
1637063095.2,286047003.1,N
1637063115.0,286047003.3,N
1637063115.9,286047003.3,N
1637063135.7,286047003.5,N
1637063155.6,286047003.5,N
1637063175.4,286047003.2,N
1637063195.2,286047003.2,N
1637063215.1,286047004.1,N
1637063216.0,286047004.1,N
1637063235.8,286047003.1,N
1637063255.6,286047004.9,N
1637063275.5,286047004.8,N
1637063295.3,286047004.5,N
1637063315.1,286047004.8,N
1637063335.9,286047004.5,N
1637063355.7,286047007.6,Y
1637063375.5,286047003.8,P
1637063395.4,286047006.0,P
1637063415.2,286047007.3,P
1637063435.0,286047006.4,Y
1637063435.9,286047006.4,P
1637063455.8,286047002.3,N
1637063475.6,286047000.0,N
1637063495.4,286047001.6,N
1637063515.3,286046999.8,N
1637063535.1,286047000.3,N
1637063555.8,286046999.9,N
1637063575.7,286047002.0,N
1637063595.5,286047001.0,N
1637063615.3,286046999.0,N
1637063635.2,286046998.3,N
1637063655.0,286046998.1,N
1637063655.9,286046998.1,N
1637063675.7,286046998.6,N
1637063695.6,286046998.3,N
1637063715.4,286046998.8,N
1637063735.2,286046998.2,N
1637063755.1,286047000.0,N
1637063756.0,286047000.0,N
1637063775.8,286047002.3,N
1637063795.6,286047001.5,N
1637063815.5,286047003.2,N
1637063835.3,286047005.4,N
1637063855.1,286047004.9,N
1637063875.9,286047006.2,N
1637063895.7,286047008.6,Y
1637063915.5,286047006.2,P
1637063935.4,286047006.8,N
1637063955.2,286047007.5,N
1637063975.0,286047005.0,N
1637063976.0,286047005.0,N
1637063995.8,286047007.1,Y
